When you browse on this site, cookies collect data to enhance your experience and personalize the content and advertising you see.
Visit our Privacy Policy to learn more. By continuing to use the site, you agree to this use of cookies and data.
  • In Slovakia
  • List of Countries
  • For 7 days
  • Water Temperature
  • Weather Map
  • Weather Widgets
  • user-avatar
    Login

    Hourly Weather Kolnica

    Today, 3 June, Wednesday

    Time Temperature Precipitation Wind Pressure Humidity
    00:00 +9°C° 0 mm 3 mps 745 mmHg 89%
    01:00 +9°C° 0 mm 3 mps 745 mmHg 89%
    02:00 +9°C° 0 mm 3 mps 745 mmHg 89%
    03:00 +9°C° 0.1 mm 3 mps 744 mmHg 91%
    04:00 +9°C° 0.1 mm 3 mps 744 mmHg 93%
    05:00 +9°C° 0.1 mm 3 mps 743 mmHg 94%
    06:00 +9°C° 0 mm 3 mps 743 mmHg 93%
    07:00 +10°C° 0 mm 3 mps 743 mmHg 91%
    08:00 +10°C° 0 mm 3 mps 743 mmHg 90%
    09:00 +11°C° 0.1 mm 3 mps 743 mmHg 85%
    10:00 +12°C° 0.1 mm 3 mps 743 mmHg 81%
    11:00 +13°C° 0.1 mm 3 mps 743 mmHg 77%
    12:00 +14°C° 0.4 mm 4 mps 743 mmHg 74%
    13:00 +15°C° 0.4 mm 4 mps 742 mmHg 71%
    14:00 +17°C° 0.4 mm 4 mps 742 mmHg 68%
    15:00 +15°C° 0.7 mm 4 mps 742 mmHg 71%
    16:00 +15°C° 0.7 mm 4 mps 741 mmHg 75%
    17:00 +14°C° 0.7 mm 4 mps 741 mmHg 78%
    18:00 +14°C° 0.4 mm 3 mps 741 mmHg 82%
    19:00 +13°C° 0.4 mm 3 mps 741 mmHg 85%
    20:00 +13°C° 0.4 mm 2 mps 740 mmHg 89%
    21:00 +12°C° 0.1 mm 2 mps 740 mmHg 91%
    22:00 +10°C° 0.1 mm 2 mps 740 mmHg 92%
    23:00 +8°C° 0.1 mm 2 mps 740 mmHg 94%

    Tomorrow, 4 June, Thursday

    Time Temperature Precipitation Wind Pressure Humidity
    00:00 +8°C° 0 mm 2 mps 740 mmHg 94%
    01:00 +8°C° 0 mm 1 mps 740 mmHg 95%
    02:00 +8°C° 0 mm 1 mps 740 mmHg 95%
    03:00 +8°C° 0 mm 1 mps 740 mmHg 95%
    04:00 +8°C° 0 mm 1 mps 739 mmHg 95%
    05:00 +8°C° 0 mm 1 mps 739 mmHg 96%
    06:00 +9°C° 0 mm 1 mps 739 mmHg 91%
    07:00 +11°C° 0 mm 1 mps 739 mmHg 87%
    08:00 +13°C° 0 mm 1 mps 740 mmHg 83%
    09:00 +15°C° 0.2 mm 1 mps 739 mmHg 77%
    10:00 +16°C° 0.2 mm 1 mps 739 mmHg 72%
    11:00 +17°C° 0.2 mm 0 mps 739 mmHg 66%
    12:00 +19°C° 0.5 mm 1 mps 739 mmHg 66%
    13:00 +19°C° 0.5 mm 1 mps 739 mmHg 66%
    14:00 +19°C° 0.5 mm 1 mps 738 mmHg 65%
    15:00 +19°C° 0.5 mm 1 mps 738 mmHg 65%
    16:00 +19°C° 0.5 mm 1 mps 738 mmHg 65%
    17:00 +19°C° 0.5 mm 1 mps 738 mmHg 65%
    18:00 +18°C° 0.1 mm 1 mps 738 mmHg 70%
    19:00 +16°C° 0.1 mm 1 mps 738 mmHg 75%
    20:00 +14°C° 0.1 mm 1 mps 737 mmHg 80%
    21:00 +13°C° 0 mm 1 mps 737 mmHg 83%
    22:00 +12°C° 0 mm 1 mps 738 mmHg 85%
    23:00 +10°C° 0 mm 2 mps 738 mmHg 88%

    Day after tomorrow, 5 June, Friday

    Time Temperature Precipitation Wind Pressure Humidity
    00:00 +10°C° 0 mm 2 mps 738 mmHg 89%
    01:00 +9°C° 0 mm 2 mps 737 mmHg 90%
    02:00 +9°C° 0 mm 2 mps 737 mmHg 91%
    03:00 +9°C° 0 mm 2 mps 737 mmHg 92%
    04:00 +9°C° 0 mm 2 mps 737 mmHg 92%
    05:00 +9°C° 0 mm 3 mps 737 mmHg 93%
    06:00 +11°C° 0 mm 3 mps 736 mmHg 87%
    07:00 +13°C° 0 mm 4 mps 736 mmHg 82%
    08:00 +16°C° 0 mm 5 mps 736 mmHg 76%
    09:00 +17°C° 0 mm 5 mps 736 mmHg 74%
    10:00 +19°C° 0 mm 6 mps 735 mmHg 72%
    11:00 +20°C° 0 mm 6 mps 735 mmHg 70%
    12:00 +21°C° 0.1 mm 6 mps 735 mmHg 71%
    13:00 +21°C° 0.1 mm 6 mps 735 mmHg 73%
    14:00 +21°C° 0.1 mm 5 mps 735 mmHg 74%
    15:00 +20°C° 1 mm 5 mps 735 mmHg 79%
    16:00 +20°C° 1 mm 5 mps 735 mmHg 84%
    17:00 +19°C° 1 mm 5 mps 735 mmHg 89%
    18:00 +17°C° 0.2 mm 5 mps 735 mmHg 90%
    19:00 +16°C° 0.2 mm 5 mps 736 mmHg 91%
    20:00 +15°C° 0.2 mm 5 mps 736 mmHg 92%
    21:00 +14°C° 0.1 mm 4 mps 736 mmHg 93%
    22:00 +13°C° 0.1 mm 4 mps 737 mmHg 94%
    23:00 +12°C° 0.1 mm 3 mps 737 mmHg 96%

    6 June, Saturday

    Time Temperature Precipitation Wind Pressure Humidity
    00:00 +11°C° 0.9 mm 3 mps 738 mmHg 96%
    01:00 +12°C° 0.9 mm 2 mps 738 mmHg 96%
    02:00 +10°C° 0.9 mm 2 mps 738 mmHg 97%
    03:00 +10°C° 0.3 mm 2 mps 739 mmHg 97%
    04:00 +10°C° 0.3 mm 2 mps 739 mmHg 97%
    05:00 +10°C° 0.3 mm 3 mps 740 mmHg 97%
    06:00 +11°C° 0 mm 4 mps 740 mmHg 93%
    07:00 +13°C° 0 mm 5 mps 740 mmHg 89%
    08:00 +14°C° 0 mm 7 mps 741 mmHg 84%
    09:00 +15°C° 0.1 mm 7 mps 741 mmHg 79%
    10:00 +16°C° 0.1 mm 7 mps 742 mmHg 74%
    11:00 +16°C° 0.1 mm 8 mps 742 mmHg 68%
    12:00 +17°C° 0.1 mm 8 mps 743 mmHg 65%
    13:00 +17°C° 0.1 mm 8 mps 743 mmHg 62%
    14:00 +18°C° 0.1 mm 8 mps 744 mmHg 59%
    15:00 +18°C° 0 mm 7 mps 744 mmHg 60%
    16:00 +19°C° 0 mm 6 mps 744 mmHg 61%
    17:00 +19°C° 0 mm 6 mps 744 mmHg 61%
    18:00 +18°C° 0 mm 4 mps 744 mmHg 68%
    19:00 +18°C° 0 mm 3 mps 744 mmHg 74%
    20:00 +17°C° 0 mm 2 mps 744 mmHg 81%
    21:00 +16°C° 0 mm 3 mps 745 mmHg 84%
    22:00 +14°C° 0 mm 3 mps 745 mmHg 88%
    23:00 +13°C° 0 mm 3 mps 746 mmHg 91%

    7 June, Sunday

    Time Temperature Precipitation Wind Pressure Humidity
    00:00 +13°C° 0 mm 3 mps 746 mmHg 92%
    01:00 +13°C° 0 mm 3 mps 746 mmHg 93%
    02:00 +12°C° 0 mm 3 mps 746 mmHg 94%
    03:00 +12°C° 0 mm 3 mps 747 mmHg 93%
    04:00 +14°C° 0 mm 2 mps 747 mmHg 92%
    05:00 +14°C° 0 mm 2 mps 747 mmHg 90%
    06:00 +16°C° 0 mm 3 mps 747 mmHg 86%
    07:00 +17°C° 0 mm 3 mps 747 mmHg 81%
    08:00 +19°C° 0 mm 4 mps 748 mmHg 77%
    09:00 +20°C° 0 mm 4 mps 748 mmHg 72%
    10:00 +22°C° 0 mm 4 mps 748 mmHg 68%
    11:00 +23°C° 0 mm 5 mps 748 mmHg 64%
    12:00 +23°C° 0.2 mm 5 mps 748 mmHg 65%
    13:00 +23°C° 0.2 mm 5 mps 747 mmHg 66%
    14:00 +23°C° 0.2 mm 5 mps 747 mmHg 68%
    15:00 +22°C° 0.2 mm 4 mps 746 mmHg 68%
    16:00 +22°C° 0.2 mm 4 mps 746 mmHg 68%
    17:00 +22°C° 0.2 mm 4 mps 746 mmHg 68%
    18:00 +21°C° 0.1 mm 3 mps 745 mmHg 73%
    19:00 +19°C° 0.1 mm 3 mps 745 mmHg 78%
    20:00 +18°C° 0.1 mm 2 mps 745 mmHg 83%
    21:00 +17°C° 0 mm 2 mps 745 mmHg 86%
    22:00 +16°C° 0 mm 2 mps 744 mmHg 90%
    23:00 +15°C° 0 mm 2 mps 744 mmHg 93%

    8 June, Monday

    Time Temperature Precipitation Wind Pressure Humidity
    00:00 +15°C° 0 mm 2 mps 744 mmHg 94%
    01:00 +15°C° 0 mm 1 mps 744 mmHg 95%
    02:00 +14°C° 0 mm 1 mps 744 mmHg 96%
    03:00 +15°C° 0 mm 1 mps 744 mmHg 96%
    04:00 +15°C° 0 mm 1 mps 744 mmHg 96%
    05:00 +15°C° 0 mm 1 mps 744 mmHg 96%
    06:00 +18°C° 0 mm 1 mps 744 mmHg 91%
    07:00 +20°C° 0 mm 1 mps 744 mmHg 86%
    08:00 +20°C° 0 mm 2 mps 744 mmHg 81%
    09:00 +23°C° 0.1 mm 2 mps 745 mmHg 77%
    10:00 +24°C° 0.1 mm 3 mps 745 mmHg 73%
    11:00 +25°C° 0.1 mm 3 mps 745 mmHg 70%
    12:00 +26°C° 0.8 mm 3 mps 745 mmHg 70%
    13:00 +26°C° 0.8 mm 3 mps 745 mmHg 70%
    14:00 +26°C° 0.8 mm 3 mps 745 mmHg 69%
    15:00 +26°C° 1.4 mm 3 mps 745 mmHg 73%
    16:00 +25°C° 1.4 mm 3 mps 745 mmHg 76%
    17:00 +25°C° 1.4 mm 3 mps 745 mmHg 80%
    18:00 +24°C° 0.2 mm 3 mps 745 mmHg 84%
    19:00 +21°C° 0.2 mm 3 mps 746 mmHg 88%
    20:00 +20°C° 0.2 mm 3 mps 746 mmHg 91%
    21:00 +19°C° 0 mm 3 mps 746 mmHg 93%
    22:00 +18°C° 0 mm 3 mps 747 mmHg 95%
    23:00 +17°C° 0 mm 3 mps 747 mmHg 97%
    Show more